SCP
0 0 0 0 0 0 0 0 0 0 0 0 0 0 0 0 0 0 0 -0 -0 0 0 0 0 0 1 7 8 3 6 4 4 3 5 3 3 0 1 1 1 2 2 2
0 0 0 0 0 0 0 0 0 0 0 0 0 0 0 0 -0 0 0 0 -0 0 0 0 0 1 1 7 5 1 1 4 5 7 2 1 0 -0 1 0 0 0 0 0
0 0 0 0 0 0 0 0 0 0 0 0 0 0 -0 -0 0 0 0 -0 0 -0 0 0 0 0 0 1 0 1 0 3 3 2 2 3 1 3 1 1 2 1 0 0
0 -0 0 0 0 0 0 0 0 0 0 0 -0 0 -0 0 0 0 0 0 0 0 0 -0 0 0 0 0 0 1 1 2 2 0 1 1 0 0 0 0 7 4 1 1
0 0 0 0 0 0 0 0 0 0 0 0 0 0 0 0 0 -0 0 0 0 0 0 0 0 0 0 0 0 3 10 6 2 3 1 2 3 1 0 4 6 6 5 3
-0 0 0 0 0 0 0 0 0 0 0 0 0 0 0 0 0 0 0 0 0 0 0 0 0 0 0 0 0 0 1 4 7 6 4 3 5 4 3 5 4 4 4 4
0 0 0 0 0 0 -0 0 0 0 0 0 0 0 0 0 0 0 0 0 0 0 0 0 0 0 0 0 0 0 0 1 2 2 4 9 8 4 4 5 3 4 6 6
0 0 0 0 0 0 0 0 0 0 0 0 0 0 0 0 0 0 0 0 0 0 0 0 0 0 0 0 0 0 0 1 1 1 2 3 2 4 1 3 3 2 2 1
0 -0 0 0 0 0 0 0 0 0 0 0 0 0 0 0 0 0 0 0 0 0 0 0 0 0 0 0 0 0 1 1 1 1 1 2 3 2 2 4 5 3 4 1
0 0 0 0 0 0 0 0 0 0 0 0 0 -0 0 0 0 0 0 0 0 0 0 0 0 0 0 1 1 2 2 3 4 4 3 2 1 2 4 5 3 3 1 1
0 0 0 0 0 0 0 0 0 0 0 0 0 0 0 0 0 0 0 0 0 0 0 0 0 0 0 0 0 1 1 2 3 3 3 2 2 2 2 2 2 2 2 1
0 0 0 0 0 0 0 0 0 0 0 0 0 0 0 0 0 0 0 0 0 0 0 0 0 0 0 0 0 1 1 1 2 2 3 3 2 2 3 3 3 2 2 1
0 0 0 0 0 0 0 0 -0 0 0 0 0 0 0 0 0 0 0 0 0 0 0 0 0 0 0 0 0 0 0 0 0 1 2 3 4 4 4 3 2 1 1 1
0 0 0 0 0 0 0 0 0 0 0 0 0 0 0 0 0 0 0 0 0 0 0 0 0 0 0 0 0 0 0 0 0 0 0 0 0 0 0 0 0 0 0 0
0 0 0 0 -0 0 0 0 0 0 0 0 0 0 0 -0 0 0 0 0 0 0 0 0 0 0 0 0 0 0 0 0 0 0 0 0 0 0 0 0 0 0 0 0
0 0 0 0 -0 -0 0 0 0 0 0 0 0 0 0 0 0 0 0 0 0 0 0 0 0 0 0 0 0 0 0 0 0 0 0 0 0 0 0 0 0 0 0 0
0 0 0 0 0 0 0 0 0 0 0 0 0 0 0 0 0 0 0 0 0 0 0 0 0 0 0 0 0 0 0 0 0 0 0 0 0 0 0 0 0 0 0 0
0 0 0 0 0 0 0 0 0 0 0 0 0 0 0 0 0 0 0 0 0 0 0 0 0 0 0 0 0 0 0 0 0 0 0 0 0 0 0 0 0 0 0 0
0 0 0 0 0 0 0 0 0 0 0 0 0 0 0 0 0 0 0 0 0 0 0 0 0 0 0 0 0 0 0 0 0 0 0 0 0 0 0 0 0 0 0 0
0 0 0 0 0 0 0 0 0 0 0 0 0 0 0 0 0 0 0 0 0 0 0 0 0 0 0 0 0 0 0 0 0 0 0 0 0 0 0 0 0 0 0 0
0 0 0 0 0 0 0 0 0 0 0 0 0 0 0 0 0 0 0 0 0 0 0 0 0 0 0 0 0 0 0 0 0 0 0 0 0 0 0 0 0 0 0 0
0 0 0 0 0 0 0 0 0 0 0 0 0 0 0 0 0 0 0 0 0 0 0 0 0 0 0 0 0 0 0 0 0 0 0 0 0 0 0 0 0 0 0 0
0 0 0 0 0 0 0 0 0 0 0 0 0 0 0 0 0 0 0 0 0 0 0 0 0 0 0 0 0 0 0 0 0 0 0 0 0 0 0 0 0 0 0 0
0 0 0 0 0 0 0 0 0 0 0 0 0 0 0 0 0 0 0 0 0 0 0 0 0 0 0 0 0 0 0 0 0 0 0 0 0 0 0 0 0 0 0 0
0 0 0 0 0 0 0 0 0 0 0 0 0 0 0 0 0 0 0 0 0 0 0 0 0 0 0 0 0 0 0 0 0 0 0 -0 -0 -0 -0 0 0 0 0 0
0 0 0 0 0 0 0 0 0 0 0 0 0 0 0 0 0 0 0 0 0 0 0 0 -0 -0 0 0 0 0 0 0 0 -0 -0 -0 0 -0 -0 -0 0 0 0 0
Wind_Speed_500mb
52 34 40 44 45 42 31 35 39 32 20 14 23 24 29 23 31 21 22 26 32 37 42 53 47 30 40 34 45 41 51 42 47 31 30 38 42 43 29 61 53 34 30 21
29 43 44 40 40 40 42 27 23 20 23 19 26 29 23 26 24 21 16 17 22 27 40 52 24 31 41 42 35 35 42 50 42 30 30 22 29 31 10 25 25 33 12 15
35 31 42 39 37 38 37 35 30 27 23 23 23 31 35 30 18 17 15 14 11 15 36 42 38 36 39 42 36 28 27 37 46 19 34 31 33 22 33 27 35 52 43 51
38 38 35 30 40 38 36 35 31 24 22 25 37 26 24 19 11 20 12 6 14 19 28 50 45 42 46 44 32 34 36 32 41 31 23 57 80 68 55 39 60 57 49 70
36 37 24 39 39 37 33 22 29 34 32 28 32 16 23 29 17 22 14 7 10 6 13 17 24 27 40 41 40 56 66 70 46 50 65 60 74 78 60 48 39 49 45 57
41 37 36 32 34 33 29 25 20 23 24 28 34 29 27 25 26 25 22 10 7 7 3 7 10 20 36 39 38 38 53 53 58 52 66 74 85 78 52 50 41 42 45 55
39 35 36 31 38 35 37 22 22 25 25 27 34 33 28 13 9 10 17 6 5 8 10 13 14 14 16 28 40 27 36 44 68 70 82 94 82 76 65 51 45 40 43 46
22 30 35 26 37 39 41 32 26 28 24 28 41 26 16 8 26 12 6 3 2 9 15 15 18 16 12 11 23 31 33 37 39 49 57 66 57 57 47 54 38 40 37 38
35 35 31 41 32 32 35 33 36 35 27 16 10 16 17 18 23 17 13 5 6 7 10 16 17 17 14 7 5 14 20 23 27 29 32 35 46 54 48 39 40 31 29 27
15 26 30 24 34 40 41 28 23 17 29 30 28 35 16 28 26 22 17 12 6 4 10 16 18 19 20 19 15 10 7 17 20 24 31 39 46 40 35 39 33 28 26 20
35 20 12 10 25 38 32 38 22 30 24 23 27 4 4 12 24 22 14 15 8 0 8 13 17 18 24 24 26 25 25 23 19 20 15 15 18 22 25 26 29 22 20 19
37 17 22 37 19 9 29 19 37 23 33 5 20 5 13 11 7 7 11 14 6 6 3 11 12 14 18 22 24 23 25 24 18 16 16 16 17 16 14 14 14 14 13 15
9 14 16 12 23 29 23 38 31 22 7 27 16 2 20 8 9 9 4 11 11 7 6 6 5 2 8 12 14 18 19 16 15 18 12 12 12 12 10 7 6 11 15 21
17 12 17 11 5 19 27 36 29 25 18 18 23 22 37 16 7 10 10 13 13 14 18 14 10 12 2 7 5 9 14 16 15 11 9 7 5 4 1 5 11 14 19 24
4 14 25 18 18 13 27 18 25 26 21 26 26 32 35 34 10 16 22 27 33 30 32 32 22 10 11 5 4 3 7 6 3 5 6 7 6 8 10 14 17 22 27 31
6 13 9 21 23 18 27 24 23 20 25 24 26 26 23 16 17 18 19 18 24 30 33 34 2 3 4 6 3 7 8 6 8 7 7 15 18 17 22 27 30 33 37 40
8 12 12 19 5 7 20 29 33 31 28 23 23 7 20 7 10 11 12 8 16 16 11 8 7 4 3 5 6 8 8 10 11 12 15 18 21 25 25 32 36 40 44 49
8 14 5 11 8 14 17 8 11 10 2 2 4 7 10 7 7 4 16 16 12 12 10 6 4 1 5 9 12 13 16 19 21 24 27 28 33 36 38 42 45 50 54 57
8 7 5 7 13 14 13 6 3 2 14 15 6 15 5 4 7 10 8 4 4 2 6 6 8 11 15 18 20 23 26 28 30 33 35 36 37 40 43 46 49 53 54 58
9 11 5 7 5 7 19 16 4 2 9 9 6 18 9 14 17 11 5 3 6 9 11 19 20 23 25 26 28 32 34 35 37 38 40 41 43 45 48 49 52 53 52 55
9 7 15 12 8 9 13 12 3 11 9 14 9 9 4 8 7 9 11 15 14 17 19 23 26 31 32 34 35 39 41 42 40 42 43 44 44 47 48 50 48 48 53 53
12 11 10 8 10 14 11 6 9 11 6 2 11 12 1 11 13 16 17 17 21 24 28 30 36 38 39 39 41 44 44 42 43 44 46 46 46 45 46 48 49 48 48 53
10 5 7 11 5 9 6 5 5 6 9 16 7 4 11 17 20 21 24 27 32 34 37 38 41 41 42 41 40 44 44 43 45 46 46 45 45 43 39 44 51 51 41 46
5 9 7 5 9 10 3 5 5 4 6 3 7 13 17 21 24 28 32 36 38 39 40 39 40 41 41 39 40 43 45 44 45 46 45 42 40 44 53 45 41 48 53 46
8 8 10 15 11 11 11 6 5 5 7 10 15 19 24 26 27 30 34 36 38 38 38 40 43 46 49 46 43 40 39 40 41 43 44 47 49 47 44 44 41 40 35 39
12 9 8 5 8 5 11 1 5 13 16 17 22 25 24 25 33 35 32 39 46 47 46 47 47 47 45 43 41 37 38 50 49 50 46 45 45 44 43 41 37 28 34 34
Wind_Direction_500mb
196 208 211 212 220 235 244 256 226 207 208 214 254 261 267 271 275 270 257 242 253 240 233 219 219 220 200 194 185 199 203 199 201 208 214 220 234 244 255 232 229 225 214 207
180 219 223 224 221 228 244 244 243 249 236 237 262 251 261 279 260 267 307 256 245 239 220 208 174 199 190 184 197 201 203 196 191 181 243 258 288 269 266 302 266 239 226 259
207 217 224 220 220 219 231 229 226 240 220 222 265 266 253 245 232 249 259 288 297 239 210 197 168 187 186 180 184 204 208 212 211 219 247 264 261 282 263 267 262 228 219 228
213 224 209 205 221 209 219 215 238 242 248 248 226 252 239 193 197 202 218 276 356 340 200 207 205 181 187 187 206 212 217 221 251 227 197 254 241 245 259 278 256 246 225 226
212 235 201 205 214 207 232 212 220 226 232 248 254 245 269 170 206 231 163 167 76 7 353 318 301 279 218 221 223 229 229 241 223 230 224 229 242 242 241 233 222 235 229 220
228 209 211 219 223 220 228 239 236 242 236 231 235 245 236 234 189 202 132 104 50 19 25 353 307 279 256 253 228 207 218 217 225 224 220 226 240 235 234 241 237 223 220 209
212 209 217 222 216 197 227 198 217 216 219 234 224 220 240 76 90 107 87 80 45 348 35 6 3 332 292 242 246 239 233 232 223 236 227 234 239 240 225 228 222 217 223 206
227 217 203 189 234 206 208 214 243 210 208 228 200 224 204 124 103 105 144 80 355 10 14 1 4 359 343 272 237 222 218 221 230 223 228 236 226 222 213 222 217 214 204 187
206 219 216 225 219 237 213 215 238 269 275 263 300 237 132 158 150 164 167 177 73 50 31 14 14 17 23 28 281 230 204 210 210 223 236 227 214 210 205 211 200 202 200 188
245 230 207 205 213 220 238 232 220 233 256 238 207 206 244 166 182 162 160 142 115 82 55 49 38 46 54 55 55 66 134 172 178 204 220 216 211 198 192 189 184 189 185 189
219 216 250 126 226 211 208 230 223 254 236 255 254 133 355 42 1 159 138 120 148 118 68 71 60 51 63 68 63 63 73 82 101 128 154 167 158 158 163 158 161 179 187 189
224 237 181 206 312 17 257 259 220 233 215 167 304 39 298 173 216 85 138 141 115 330 80 91 98 67 66 65 72 69 61 70 82 99 116 132 137 146 150 151 167 181 202 220
264 214 218 211 240 229 232 202 215 242 296 256 252 172 343 233 183 133 246 144 170 225 268 281 332 78 62 58 77 70 71 69 69 83 96 89 94 106 119 143 190 216 231 243
259 230 241 247 160 338 246 230 237 261 262 254 236 197 214 215 167 154 190 246 261 297 290 260 289 282 162 163 102 78 60 56 61 72 94 77 83 90 145 251 261 263 261 261
278 258 231 159 151 213 268 275 253 227 251 243 265 277 193 199 302 320 307 292 287 276 263 268 265 333 319 219 236 129 116 52 198 69 8 344 326 324 309 289 287 279 278 275
207 269 283 266 205 178 274 273 273 247 223 234 248 282 298 319 7 328 317 316 305 286 269 267 69 91 27 28 65 76 53 31 19 15 254 305 309 298 296 295 289 283 279 276
248 256 218 259 280 342 266 243 236 240 242 250 252 325 39 357 16 352 325 349 344 1 15 50 75 73 332 320 352 5 351 343 348 312 297 293 290 291 285 281 279 279 278 277
230 231 199 271 125 228 68 32 355 341 338 243 274 342 18 12 82 75 39 43 46 31 39 54 70 1 273 299 312 326 326 327 318 309 305 303 300 298 297 292 290 288 285 283
286 233 203 245 217 278 166 159 50 318 150 112 51 32 71 24 313 191 92 33 9 331 295 280 275 278 290 298 307 313 315 315 311 307 304 302 297 291 289 288 287 285 287 286
195 261 197 206 231 264 89 80 48 161 179 19 170 115 160 231 257 80 140 225 269 279 268 263 275 286 292 296 301 304 304 304 302 301 296 294 295 294 292 291 291 290 290 290
175 182 206 211 226 284 103 117 57 237 89 89 55 81 62 308 358 192 279 300 296 290 283 280 283 288 290 294 295 295 296 296 296 293 294 293 292 292 294 295 294 292 287 285
169 193 190 213 201 245 129 157 255 49 99 34 80 107 196 263 257 254 262 270 276 281 284 285 289 289 289 291 292 292 291 294 295 294 294 294 296 296 293 290 287 286 286 285
203 244 202 192 231 110 74 45 29 340 19 56 4 48 283 292 294 302 303 298 292 290 291 291 290 291 291 291 290 292 293 296 295 294 294 294 292 292 290 287 288 293 292 286
228 190 245 202 233 88 147 71 54 36 53 16 292 300 304 303 302 299 297 297 296 295 295 294 293 292 293 293 291 289 293 293 291 291 292 294 291 288 292 293 287 283 297 301
87 187 238 252 226 190 112 80 350 322 312 313 310 308 304 303 304 305 302 303 302 300 297 296 293 291 292 293 291 291 292 288 288 291 290 293 297 302 299 301 300 302 306 301
227 233 237 276 20 329 96 161 25 337 327 318 312 309 303 302 300 299 302 307 303 297 293 292 291 291 291 290 290 290 287 282 288 293 298 302 304 306 309 311 314 309 313 319
Wind_Speed_850mb
52 34 40 44 45 42 31 35 39 32 20 14 23 24 29 23 31 21 22 26 32 37 42 53 47 30 40 34 45 41 51 42 47 31 30 38 42 43 29 61 53 34 30 21
29 43 44 40 40 40 42 27 23 20 23 19 26 29 23 26 24 21 16 17 22 27 40 52 24 31 41 42 35 35 42 50 42 30 30 22 29 31 10 25 25 33 12 15
35 31 42 39 37 38 37 35 30 27 23 23 23 31 35 30 18 17 15 14 11 15 36 42 38 36 39 42 36 28 27 37 46 19 34 31 33 22 33 27 35 52 43 51
38 38 35 30 40 38 36 35 31 24 22 25 37 26 24 19 11 20 12 6 14 19 28 50 45 42 46 44 32 34 36 32 41 31 23 57 80 68 55 39 60 57 49 70
36 37 24 39 39 37 33 22 29 34 32 28 32 16 23 29 17 22 14 7 10 6 13 17 24 27 40 41 40 56 66 70 46 50 65 60 74 78 60 48 39 49 45 57
41 37 36 32 34 33 29 25 20 23 24 28 34 29 27 25 26 25 22 10 7 7 3 7 10 20 36 39 38 38 53 53 58 52 66 74 85 78 52 50 41 42 45 55
39 35 36 31 38 35 37 22 22 25 25 27 34 33 28 13 9 10 17 6 5 8 10 13 14 14 16 28 40 27 36 44 68 70 82 94 82 76 65 51 45 40 43 46
22 30 35 26 37 39 41 32 26 28 24 28 41 26 16 8 26 12 6 3 2 9 15 15 18 16 12 11 23 31 33 37 39 49 57 66 57 57 47 54 38 40 37 38
35 35 31 41 32 32 35 33 36 35 27 16 10 16 17 18 23 17 13 5 6 7 10 16 17 17 14 7 5 14 20 23 27 29 32 35 46 54 48 39 40 31 29 27
15 26 30 24 34 40 41 28 23 17 29 30 28 35 16 28 26 22 17 12 6 4 10 16 18 19 20 19 15 10 7 17 20 24 31 39 46 40 35 39 33 28 26 20
35 20 12 10 25 38 32 38 22 30 24 23 27 4 4 12 24 22 14 15 8 0 8 13 17 18 24 24 26 25 25 23 19 20 15 15 18 22 25 26 29 22 20 19
37 17 22 37 19 9 29 19 37 23 33 5 20 5 13 11 7 7 11 14 6 6 3 11 12 14 18 22 24 23 25 24 18 16 16 16 17 16 14 14 14 14 13 15
9 14 16 12 23 29 23 38 31 22 7 27 16 2 20 8 9 9 4 11 11 7 6 6 5 2 8 12 14 18 19 16 15 18 12 12 12 12 10 7 6 11 15 21
17 12 17 11 5 19 27 36 29 25 18 18 23 22 37 16 7 10 10 13 13 14 18 14 10 12 2 7 5 9 14 16 15 11 9 7 5 4 1 5 11 14 19 24
4 14 25 18 18 13 27 18 25 26 21 26 26 32 35 34 10 16 22 27 33 30 32 32 22 10 11 5 4 3 7 6 3 5 6 7 6 8 10 14 17 22 27 31
6 13 9 21 23 18 27 24 23 20 25 24 26 26 23 16 17 18 19 18 24 30 33 34 2 3 4 6 3 7 8 6 8 7 7 15 18 17 22 27 30 33 37 40
8 12 12 19 5 7 20 29 33 31 28 23 23 7 20 7 10 11 12 8 16 16 11 8 7 4 3 5 6 8 8 10 11 12 15 18 21 25 25 32 36 40 44 49
8 14 5 11 8 14 17 8 11 10 2 2 4 7 10 7 7 4 16 16 12 12 10 6 4 1 5 9 12 13 16 19 21 24 27 28 33 36 38 42 45 50 54 57
8 7 5 7 13 14 13 6 3 2 14 15 6 15 5 4 7 10 8 4 4 2 6 6 8 11 15 18 20 23 26 28 30 33 35 36 37 40 43 46 49 53 54 58
9 11 5 7 5 7 19 16 4 2 9 9 6 18 9 14 17 11 5 3 6 9 11 19 20 23 25 26 28 32 34 35 37 38 40 41 43 45 48 49 52 53 52 55
9 7 15 12 8 9 13 12 3 11 9 14 9 9 4 8 7 9 11 15 14 17 19 23 26 31 32 34 35 39 41 42 40 42 43 44 44 47 48 50 48 48 53 53
12 11 10 8 10 14 11 6 9 11 6 2 11 12 1 11 13 16 17 17 21 24 28 30 36 38 39 39 41 44 44 42 43 44 46 46 46 45 46 48 49 48 48 53
10 5 7 11 5 9 6 5 5 6 9 16 7 4 11 17 20 21 24 27 32 34 37 38 41 41 42 41 40 44 44 43 45 46 46 45 45 43 39 44 51 51 41 46
5 9 7 5 9 10 3 5 5 4 6 3 7 13 17 21 24 28 32 36 38 39 40 39 40 41 41 39 40 43 45 44 45 46 45 42 40 44 53 45 41 48 53 46
8 8 10 15 11 11 11 6 5 5 7 10 15 19 24 26 27 30 34 36 38 38 38 40 43 46 49 46 43 40 39 40 41 43 44 47 49 47 44 44 41 40 35 39
12 9 8 5 8 5 11 1 5 13 16 17 22 25 24 25 33 35 32 39 46 47 46 47 47 47 45 43 41 37 38 50 49 50 46 45 45 44 43 41 37 28 34 34
Wind_Direction_850mb
196 208 211 212 220 235 244 256 226 207 208 214 254 261 267 271 275 270 257 242 253 240 233 219 219 220 200 194 185 199 203 199 201 208 214 220 234 244 255 232 229 225 214 207
180 219 223 224 221 228 244 244 243 249 236 237 262 251 261 279 260 267 307 256 245 239 220 208 174 199 190 184 197 201 203 196 191 181 243 258 288 269 266 302 266 239 226 259
207 217 224 220 220 219 231 229 226 240 220 222 265 266 253 245 232 249 259 288 297 239 210 197 168 187 186 180 184 204 208 212 211 219 247 264 261 282 263 267 262 228 219 228
213 224 209 205 221 209 219 215 238 242 248 248 226 252 239 193 197 202 218 276 356 340 200 207 205 181 187 187 206 212 217 221 251 227 197 254 241 245 259 278 256 246 225 226
212 235 201 205 214 207 232 212 220 226 232 248 254 245 269 170 206 231 163 167 76 7 353 318 301 279 218 221 223 229 229 241 223 230 224 229 242 242 241 233 222 235 229 220
228 209 211 219 223 220 228 239 236 242 236 231 235 245 236 234 189 202 132 104 50 19 25 353 307 279 256 253 228 207 218 217 225 224 220 226 240 235 234 241 237 223 220 209
212 209 217 222 216 197 227 198 217 216 219 234 224 220 240 76 90 107 87 80 45 348 35 6 3 332 292 242 246 239 233 232 223 236 227 234 239 240 225 228 222 217 223 206
227 217 203 189 234 206 208 214 243 210 208 228 200 224 204 124 103 105 144 80 355 10 14 1 4 359 343 272 237 222 218 221 230 223 228 236 226 222 213 222 217 214 204 187
206 219 216 225 219 237 213 215 238 269 275 263 300 237 132 158 150 164 167 177 73 50 31 14 14 17 23 28 281 230 204 210 210 223 236 227 214 210 205 211 200 202 200 188
245 230 207 205 213 220 238 232 220 233 256 238 207 206 244 166 182 162 160 142 115 82 55 49 38 46 54 55 55 66 134 172 178 204 220 216 211 198 192 189 184 189 185 189
219 216 250 126 226 211 208 230 223 254 236 255 254 133 355 42 1 159 138 120 148 118 68 71 60 51 63 68 63 63 73 82 101 128 154 167 158 158 163 158 161 179 187 189
224 237 181 206 312 17 257 259 220 233 215 167 304 39 298 173 216 85 138 141 115 330 80 91 98 67 66 65 72 69 61 70 82 99 116 132 137 146 150 151 167 181 202 220
264 214 218 211 240 229 232 202 215 242 296 256 252 172 343 233 183 133 246 144 170 225 268 281 332 78 62 58 77 70 71 69 69 83 96 89 94 106 119 143 190 216 231 243
259 230 241 247 160 338 246 230 237 261 262 254 236 197 214 215 167 154 190 246 261 297 290 260 289 282 162 163 102 78 60 56 61 72 94 77 83 90 145 251 261 263 261 261
278 258 231 159 151 213 268 275 253 227 251 243 265 277 193 199 302 320 307 292 287 276 263 268 265 333 319 219 236 129 116 52 198 69 8 344 326 324 309 289 287 279 278 275
207 269 283 266 205 178 274 273 273 247 223 234 248 282 298 319 7 328 317 316 305 286 269 267 69 91 27 28 65 76 53 31 19 15 254 305 309 298 296 295 289 283 279 276
248 256 218 259 280 342 266 243 236 240 242 250 252 325 39 357 16 352 325 349 344 1 15 50 75 73 332 320 352 5 351 343 348 312 297 293 290 291 285 281 279 279 278 277
230 231 199 271 125 228 68 32 355 341 338 243 274 342 18 12 82 75 39 43 46 31 39 54 70 1 273 299 312 326 326 327 318 309 305 303 300 298 297 292 290 288 285 283
286 233 203 245 217 278 166 159 50 318 150 112 51 32 71 24 313 191 92 33 9 331 295 280 275 278 290 298 307 313 315 315 311 307 304 302 297 291 289 288 287 285 287 286
195 261 197 206 231 264 89 80 48 161 179 19 170 115 160 231 257 80 140 225 269 279 268 263 275 286 292 296 301 304 304 304 302 301 296 294 295 294 292 291 291 290 290 290
175 182 206 211 226 284 103 117 57 237 89 89 55 81 62 308 358 192 279 300 296 290 283 280 283 288 290 294 295 295 296 296 296 293 294 293 292 292 294 295 294 292 287 285
169 193 190 213 201 245 129 157 255 49 99 34 80 107 196 263 257 254 262 270 276 281 284 285 289 289 289 291 292 292 291 294 295 294 294 294 296 296 293 290 287 286 286 285
203 244 202 192 231 110 74 45 29 340 19 56 4 48 283 292 294 302 303 298 292 290 291 291 290 291 291 291 290 292 293 296 295 294 294 294 292 292 290 287 288 293 292 286
228 190 245 202 233 88 147 71 54 36 53 16 292 300 304 303 302 299 297 297 296 295 295 294 293 292 293 293 291 289 293 293 291 291 292 294 291 288 292 293 287 283 297 301
87 187 238 252 226 190 112 80 350 322 312 313 310 308 304 303 304 305 302 303 302 300 297 296 293 291 292 293 291 291 292 288 288 291 290 293 297 302 299 301 300 302 306 301
227 233 237 276 20 329 96 161 25 337 327 318 312 309 303 302 300 299 302 307 303 297 293 292 291 291 291 290 290 290 287 282 288 293 298 302 304 306 309 311 314 309 313 319